Regional Weather Roundup
Issued by NWS

Home | Current Version | Previous Version | Text Only | Print | Product List | Glossary Off
Versions: 1 2 3 4 5 6 7 8 9 10 11 12 13 14 15 16 17 18 19 20 21 22 23 24 25 26 27

000
ASUS45 KBOU 202307
RWRCO

WEATHER ROUNDUP FOR COLORADO
NATIONAL WEATHER SERVICE DENVER/BOULDER CO
400 PM MST FRI JAN 20 2017

NOTE: "FAIR" INDICATES FEW OR NO CLOUDS BELOW 12000 FEET WITH NO
SIGNIFICANT WEATHER AND/OR OBSTRUCTIONS TO VISIBILITY.

COZ001>005-013-030-031-210000-
...NORTHWEST COLORADO...

CITY           SKY/WX    TMP DP  RH WIND       PRES   REMARKS
CRAIG          CLOUDY    29  23  78 SE3       29.52S
HAYDEN         CLOUDY    27  21  80 SW5       29.51S WCI  21
MEEKER         FLURRIES  29  26  89 N3        29.50F
MOUNT WERNER   NOT AVBL
STEAMBOAT SPGS CLOUDY    27  24  88 CALM      29.50R
WALDEN           N/A     25  16  68 SW7       29.47S WCI  17
$$

COZ006>008-011-210000-
...WEST CENTRAL VALLEYS...

CITY           SKY/WX    TMP DP  RH WIND       PRES   REMARKS
GRAND JUNCTION CLOUDY    35  34  96 NW7       29.54F WCI  29
MONTROSE       CLOUDY    38  20  48 VRB6      29.56F
EAGLE          PTSUNNY   34  21  60 SW12        N/A  WCI  25
RIFLE          PTSUNNY   35  31  85 W12       29.52S WCI  27
DELTA          PTSUNNY   42  25  50 SW9G16    29.56S
NUCLA          CLOUDY    36  23  60 SW7       29.60S
$$

COZ017>023-064>068-210000-
...SOUTHWEST COLORADO...

CITY           SKY/WX    TMP DP  RH WIND       PRES   REMARKS
DURANGO        CLOUDY    31  22  69 SW5       29.60S WCI  26
CORTEZ         CLOUDY    35  28  75 MISG      29.59F
PAGOSA SPRINGS PTSUNNY   30  20  65 SW8       29.61F WCI  22
TELLURIDE      NOT AVBL
WOLF CREEK PAS CLOUDY    10   9  92 SW17G33   29.56S WCI  -7
$$

COZ009-010-012-014-032>034-037-058>063-210000-
...CENTRAL COLORADO...

CITY           SKY/WX    TMP DP  RH WIND       PRES   REMARKS
ASPEN          PTSUNNY   28  22  78 N6        29.48S WCI  22
BUENA VISTA    FAIR      31  14  48 W15       29.46R WCI  20
COPPER MTN     SNOW      19  14  79 MISG      29.45R VSB 1/4
BERTHOUD PASS  NOT AVBL
COTTONWOOD PAS FAIR      28   9  43 W14G33    29.44R WCI  17
GUNNISON       FAIR      25  17  72 NE6       29.53R WCI  18
KREMMLING      SNOW      32  28  86 SW3       29.50R VSB 1/2
LEADVILLE      CLOUDY    20  13  74 NW13      29.45R WCI   7
MONARCH PASS   CLOUDY    12  10  92 SW14      29.57R WCI  -3
SALIDA         FAIR      36  16  43 SW12G20   29.55R
SUNLIGHT       CLOUDY    18  16  93 MISG      29.51S
WILKERSON PASS FAIR      19  12  73 SW15G24   29.45R WCI   5
$$

COZ069>075-210000-
...SAN LUIS VALLEY/SANGRE DE CRISTO MOUNTAINS...

CITY           SKY/WX    TMP DP  RH WIND       PRES   REMARKS
ALAMOSA        FAIR      30  15  53 SW14      29.51F WCI  19
LA VETA PASS   FAIR      21  14  73 NE24G38   29.48S WCI   4
SAGUACHE       LGT SNOW  28  21  74 E3        29.54S
$$

COZ035-036-038>040-210000-
...NORTHERN COLORADO FRONT RANGE...

CITY           SKY/WX    TMP DP  RH WIND       PRES   REMARKS
DENVER INTL AP FAIR      43  28  55 E8        29.37R
DMNS CITY PARK   N/A     45  23  41 NE6G17    29.36S
AURORA         MOCLDY    44  26  49 E3        29.37R
FRONT RANGE AP MOCLDY    45  30  57 NE7       29.39
ERIE MUNI ARPT FAIR      44  28  54 E10       29.36R
BOULDER MUN AP FAIR      45  28  53 NE8       29.35R
CENTENNIAL     PTSUNNY   42  22  44 E5        29.37R
BROOMFIELD     MOCLDY    45  19  36 CALM      29.37R
FORT COLLINS   FAIR      45  28  53 SE8       29.37R
LONGMONT       FAIR      48  29  48 E9        29.38R
$$

COZ041-046-047-076>085-087-088-210000-
...PIKES PEAK/PALMER DIVIDE AND SOUTHERN FOOTHILLS...

CITY           SKY/WX    TMP DP  RH WIND       PRES   REMARKS
COLO. SPRINGS  PTSUNNY   36  31  82 S10       29.41S
A. F. ACADEMY  PTSUNNY   36  29  75 S10       29.38S
SCHRIEVER AFB  NOT AVBL
ELLICOTT       FAIR     N/A N/A N/A SW7       29.40R
FALCON         PTSUNNY   35  28  75 SW10      29.42R WCI  27
FORT CARSON    PTSUNNY   37  31  79 SE12      29.39F
LIMON          FAIR      39  33  79 SW7       29.39R
MONUMENT HILL  FAIR      34  28  80 S7        29.40R WCI  28
TRINIDAD       FAIR      39  20  46 W21       29.45R
$$

COZ042>045-048>051-090-091-210000-
...NORTHEAST COLORADO...

CITY           SKY/WX    TMP DP  RH WIND       PRES   REMARKS
GREELEY ARPT   FAIR      45  28  51 E5        29.38S
AKRON          CLOUDY    39  31  72 NW13      29.38R
BURLINGTON     FAIR      36  34  92 W10       29.39F
WRAY           NOT AVBL
STERLING       CLOUDY    41  30  65 N14       29.37R
HOLYOKE        FAIR      43  32  65 NW7       29.37R
FORT MORGAN    MOCLDY    42  30  63 N5        29.39R
$$

COZ086-089-092>099-210000-
...SOUTHEAST COLORADO...

CITY           SKY/WX    TMP DP  RH WIND       PRES   REMARKS
PUEBLO         FAIR      44  33  65 SE9       29.41R
LA JUNTA       FAIR      39  33  79 S8        29.44S
LAMAR          FAIR      40  33  76 W5        29.42S
SPRINGFIELD      N/A     39  32  76 NW10      29.46R
$$




USA.gov is the U.S. government's official web portal to all federal, state and local government web resources and services.